Погода в Табуке

Саудовская Аравия     28°23′40″N   36°34′16″E
темп.,
°C
ветер,
м/с
пор.,
м/с
влажн.,
%
обл.,
%
осадки,
мм/ч
давл.,
гПа
погр.,
м
19 июня, сб
сб1900:00+26сз56200 0.0 1010157
03:00+24с68250 0.0 1010177
06:00+23с34240 0.0 1011103
09:00+28всв34170 0.0 1010785
12:00+32ю22100 0.0 10091050
15:00+36зсз3470 0.0 10061664
18:00+37с4380 0.0 10041614
21:00+31з58120 0.0 1007265
20 июня, вс
вс2000:00+27сз79190 0.0 1009226
03:00+24с79230 0.0 1009194
06:00+22с57340 0.0 1010152
09:00+28в23190 0.0 1010868
12:00+33ю33110 0.0 10091177
15:00+36сз2670 0.0 10062301
18:00+37зюз8750 0.0 10052017
21:00+30зсз56120 0.0 1009210
21 июня, пн
пн2100:00+26ссз610160 0.0 1010289
03:00+23ссз58250 0.0 1011184
06:00+22с23310 0.0 1012101
09:00+26ссз23220 0.0 1012628
12:00+32ссз33110 0.0 10101558
15:00+35зюз2390 0.0 10082135
18:00+36св2280 0.0 10061425
21:00+31зсз45120 0.0 1008162
22 июня, вт
вт2200:00+27ссз510210 0.0 1010295
03:00+24ссз34250 0.0 1010109
06:00+23ссз22290 0.0 101281
09:00+28сз01220 0.0 1012524
12:00+33ююв22130 0.0 10101002
15:00+37всв2490 0.0 10071794
18:00+38зюз7670 0.0 10062138
21:00+32зюз69100 0.0 1009191
23 июня, ср
ср2300:00+28ссз45210 0.0 1011133
03:00+25ссз47330 0.0 1011172
06:00+23ссз45420 0.0 1012141
09:00+28св12270 0.0 1012586
12:00+34ю23150 0.0 1010921
15:00+38зсз2590 0.0 10061652
18:00+40юз8950 0.0 10062706
21:00+33зюз57100 0.0 1008147